Location: ???? ???? ?????
(31.2680°N, 31.7283°E)
Time: 19:20:23
(UTC+00:00)

Meteor 1-11 - Pass Details

Date: 13 July 2020
Orbit: 842 x 886 km, 81.2° (Epoch: 05 August)

Event Time Altitude Azimuth Distance (km) Brightness Sun altitude
Rises 18:12:11 0° 187° (S) 3,397 7.1 -14.1°
Reaches altitude 10° 18:14:35 10° 188° (S) 2,470 6.3 -14.6°
Maximum altitude 18:20:12 86° 277° (W) 865 4.3 -15.5°
Drops below altitude 10° 18:25:55 10° 7° (N) 2,513 7.1 -16.5°
Sets 18:28:22 0° 8° (N) 3,460 7.8 -16.9°
